Location: Six Mile Lake
(44.9000°N, 79.7170°W)
Time: 08:13:36
(UTC-04:00)

AO-109 - Pass Details

Date: 05 July 2022
Orbit: 469 x 506 km, 60.7° (Epoch: 14 August)

Event Time Altitude Azimuth Distance (km) Brightness Sun altitude
Exits shadow 03:18:21 19° 144° (SE) 1,174 ? -17.4°
Maximum altitude 03:19:20 22° 121° (ESE) 1,100 ? -17.3°
Drops below altitude 10° 03:22:14 10° 69° (ENE) 1,663 ? -17.1°
Sets 03:24:44 0° 54° (NE) 2,557 ? -16.9°
